Погода в Онеге

Россия / Архангельская область     63°54′52″N   38°05′11″E
темп.,
°C
ветер,
м/с
пор.,
м/с
влажн.,
%
обл.,
%
осадки,
мм/ч
давл.,
гПа
погр.,
м
25 июля, вс
вс2500:00+13з346992 0.0 101148
03:00+12зсз467395 0.0 1011108
06:00+12з51075100 0.0 1011308
09:00+12з71187100 0.2 1012377
12:00+12з688664 0.3 1013382
15:00+13з358290 0.3 1013164
18:00+13зсз2485100 0.0 1014122
21:00+13зсз338492 0.0 101444
26 июля, пн
пн2600:00+12зюз2286100 0.0 101519
03:00+13зюз478599 0.0 1014141
06:00+12зсз5891100 0.5 1015215
09:00+12зсз579293 0.9 1016227
12:00+12зсз798589 0.0 1017334
15:00+14сз686812 0.0 1018468
18:00+14ссз686531 0.0 1019364
21:00+12всв22681 0.0 102043
27 июля, вт
вт2700:00+10юв11650 0.0 102141
03:00+11з11755 0.0 102220
06:00+12с23655 0.0 1022130
09:00+12сз33668 0.0 1022263
12:00+12з4369100 0.0 1021325
15:00+13зсз346531 0.0 1020263
18:00+14зсз23586 0.0 1018146
21:00+13ююз11645 0.0 101611
28 июля, ср
ср2800:00+13вюв226295 0.0 101616
03:00+13ю456965 0.0 101475
06:00+14юз2385100 0.9 101153
09:00+14з3694100 2.5 1009174
12:00+13зсз459174 1.3 1008194
15:00+13ссз359359 2.0 1008154
18:00+17ссв68630 0.0 1008218
21:00+13св58680 0.0 1009201
29 июля, чт
чт2900:00+10всв36760 0.0 1009138
03:00+9в57927 0.0 1009192
06:00+10вюв46835 0.0 1008252
09:00+14вюв457063 0.0 1007254
12:00+16вюв346388 0.3 1006251
15:00+19в455545 0.4 1004356
18:00+18вюв5875100 0.9 1001156
21:00+16вюв81489100 5.2 1000217